Location: Jastrz?bniki
(50.3667°N, 20.3833°E)
Time: 10:44:05
(UTC+00:00)

H-2A R/B - Pass Details

Date: 05 August 2024
Orbit: 566 x 633 km, 98.4° (Epoch: 06 September)

Event Time Altitude Azimuth Distance (km) Brightness Sun altitude
Rises 00:28:19 0° 2° (N) 2,813 6.6 -19.0°
Reaches altitude 10° 00:31:02 10° 342° (NNW) 1,921 5.2 -18.8°
Maximum altitude 00:33:47 17° 301° (WNW) 1,507 4.1 -18.6°
Enters shadow 00:35:25 14° 273° (W) 1,675 4.0 -18.5°
